Baltimore, MD

3:13 AM EDT on April 30, 2017 (GMT -0400)
Baltimore-Washington International

Weather History for KBWI - October, 2010

Change the Weather History Date:

Thursday, October 7, 2010

  Actual Average Record
Temperature  
Mean Temperature 62 °F 59 °F  
Max Temperature 74 °F 70 °F 96 °F (1941)
Min Temperature 50 °F 49 °F 35 °F (1964)
Degree Days  
Heating Degree Days 3 7  
Month to date heating degree days 55 42  
Since 1 July heating degree days 65 95  
Cooling Degree Days 0 1  
Month to date cooling degree days 0 8  
Year to date cooling degree days 1723 1153  
Growing Degree Days 12 (Base 50)    
Moisture  
Dew Point 47 °F    
Average Humidity 66    
Maximum Humidity 93    
Minimum Humidity 38    
Precipitation  
Precipitation 0.00 in 0.11 in 2.28 in (2005)
Month to date precipitation 0.92 0.79  
Year to date precipitation 37.44 32.67  
Snow  
Snow 0.00 in 0.00 in - ()
Month to date snowfall 0.0 0.0  
Since 1 July snowfall 0.0 0.0  
Snow Depth 0.00 in    
Sea Level Pressure  
Sea Level Pressure 29.82 in    
Wind  
Wind Speed 11 mph (West)    
Max Wind Speed 24 mph    
Max Gust Speed 30 mph    
Visibility 10 miles    
Events      
T = Trace of Precipitation, MM = Missing Value Source: NWS Daily Summary

Daily Weather History Graph

Daily Weather History Graph

Search for Another Location

Airport or City:

Trip Planner

Search our weather history database for the weather conditions in past years. The results will help you decide how hot, cold, wet, or windy it might be!

Date:

Astronomy

Oct. 07, 2010 Rise Set
Actual Time 7:08 AM EDT 6:39 PM EDT
Civil Twilight 6:41 AM EDT 7:06 PM EDT
Nautical Twilight 6:10 AM EDT 7:37 PM EDT
Astronomical Twilight 5:39 AM EDT 8:08 PM EDT
Moon 6:56 AM EDT (10/7) 6:16 PM EDT (10/7)
Length of Visible Light 12h 25m
Length of Day
11h 31m
Waning Crescent, 0% of the Moon is Illuminated
Oct 7
Waning Crescent
Oct 7
New
Oct 14
First Quarter
Oct 22
Full
Oct 30
Last Quarter

Hourly Weather History & Observations

Time (EDT) Temp. Dew Point Humidity Pressure Visibility Wind Dir Wind Speed Gust Speed Precip Events Conditions
12:54 AM 52.0 °F 48.0 °F 86% 29.79 in 10.0 mi WSW 9.2 mph - N/A   Partly Cloudy
1:54 AM 51.1 °F 48.0 °F 89% 29.79 in 10.0 mi WSW 8.1 mph - N/A   Scattered Clouds
2:54 AM 51.1 °F 48.0 °F 89% 29.79 in 10.0 mi WSW 6.9 mph - N/A   Scattered Clouds
3:54 AM 51.1 °F 48.0 °F 89% 29.78 in 10.0 mi SW 5.8 mph - N/A   Scattered Clouds
4:54 AM 51.1 °F 48.0 °F 89% 29.78 in 10.0 mi WSW 5.8 mph - N/A   Mostly Cloudy
5:54 AM 50.0 °F 48.0 °F 93% 29.78 in 10.0 mi SW 4.6 mph - N/A   Scattered Clouds
6:54 AM 50.0 °F 46.9 °F 89% 29.80 in 10.0 mi SW 8.1 mph - N/A   Scattered Clouds
7:54 AM 52.0 °F 46.9 °F 83% 29.80 in 10.0 mi WSW 12.7 mph - N/A   Scattered Clouds
8:54 AM 57.0 °F 46.9 °F 69% 29.81 in 10.0 mi West 9.2 mph - N/A   Scattered Clouds
9:54 AM 62.1 °F 46.9 °F 58% 29.81 in 10.0 mi West 10.4 mph - N/A   Partly Cloudy
10:54 AM 66.9 °F 46.9 °F 49% 29.80 in 10.0 mi WNW 13.8 mph 20.7 mph N/A   Partly Cloudy
11:54 AM 70.0 °F 48.0 °F 46% 29.81 in 10.0 mi West 17.3 mph 26.5 mph N/A   Scattered Clouds
12:54 PM 72.0 °F 46.9 °F 41% 29.80 in 10.0 mi WNW 17.3 mph 26.5 mph N/A   Scattered Clouds
1:54 PM 73.0 °F 48.0 °F 41% 29.79 in 10.0 mi WNW 17.3 mph 25.3 mph N/A   Partly Cloudy
2:54 PM 73.0 °F 48.0 °F 41% 29.77 in 10.0 mi West 18.4 mph 25.3 mph N/A   Partly Cloudy
3:54 PM 73.9 °F 46.9 °F 38% 29.78 in 10.0 mi WNW 18.4 mph 29.9 mph N/A   Partly Cloudy
4:54 PM 72.0 °F 45.0 °F 38% 29.80 in 10.0 mi NW 19.6 mph 25.3 mph N/A   Partly Cloudy
5:54 PM 70.0 °F 46.9 °F 44% 29.82 in 10.0 mi WNW 8.1 mph 18.4 mph N/A   Clear
6:54 PM 66.0 °F 46.9 °F 50% 29.86 in 10.0 mi WNW 11.5 mph 17.3 mph N/A   Clear
7:54 PM 63.0 °F 46.0 °F 54% 29.88 in 10.0 mi WSW 5.8 mph - N/A   Clear
8:54 PM 61.0 °F 46.0 °F 58% 29.90 in 10.0 mi WSW 6.9 mph - N/A   Clear
9:54 PM 57.9 °F 46.9 °F 67% 29.92 in 10.0 mi West 6.9 mph - N/A   Clear
10:54 PM 55.9 °F 46.9 °F 72% 29.94 in 10.0 mi WNW 8.1 mph - N/A   Clear
11:54 PM 55.9 °F 46.0 °F 69% 29.96 in 10.0 mi West 8.1 mph - N/A   Clear